Regional Weather Roundup
Issued by NWS

Home | Current Version | Previous Version | Graphics & Text | Print | Product List | Glossary Off
Versions: 1 2 3 4 5 6 7 8 9 10 11 12 13 14 15 16 17 18 19 20 21 22 23 24 25 26 27 28 29 30 31 32 33 34 35 36 37 38 39 40 41 42 43 44 45 46 47 48 49 50

000
ASUS43 KLSX 090557
RWRMO

WEATHER SUMMARY FOR MISSOURI
NATIONAL WEATHER SERVICE SPRINGFIELD MO
1200 AM CST TUE FEB 09 2016

NOTE: "FAIR" INDICATES FEW OR NO CLOUDS BELOW 12,000 FEET WITH NO
       SIGNIFICANT WEATHER AND/OR OBSTRUCTIONS TO VISIBILITY.
       CURRENT SKY AND/OR WEATHER CONDITIONS ARE NOT AVAILABLE FOR
       CHILLICOTHE AND FARMINGTON.

MOZ001>031-035>038-043-044-053-054-090700-
...NORTHERN AND WESTERN MISSOURI...

CITY           SKY/WX    TMP DP  RH WIND       PRES   REMARKS
KANSAS CTY INT PTCLDY    27  18  69 NW14      30.05F WCI  16
6HR MIN TEMP:  24; 6HR MAX TEMP:  30;

LEE`S SUMMIT   PTCLDY    25  16  68 NW7       30.05F WCI  17
6HR MIN TEMP:  25; 6HR MAX TEMP:  30;

ST JOSEPH      PTCLDY    26  17  68 N13       30.08S WCI  15
6HR MIN TEMP:  23; 6HR MAX TEMP:  30;

CHILLICOTHE      N/A     23  13  65 NW10G24   30.03S WCI  12
6HR MIN TEMP:  22; 6HR MAX TEMP:  26;


$$
MOZ066>068-077>081-088>096-101>105-090700-
...SOUTHWEST MISSOURI...

CITY           SKY/WX    TMP DP  RH WIND       PRES   REMARKS
SPRINGFIELD    PTCLDY    28  14  55 NW16G24   30.02S WCI  16
6HR MIN TEMP:  28; 6HR MAX TEMP:  33;

JOPLIN         PTCLDY    29  16  58 W10       30.11F WCI  20
6HR MIN TEMP:  28; 6HR MAX TEMP:  35;


$$
MOZ032>034-039>042-045>050-055>058-069>072-090700-
...CENTRAL MISSOURI...

CITY           SKY/WX    TMP DP  RH WIND       PRES   REMARKS
COLUMBIA       NOT AVBL
JEFFERSON CITY CLOUDY    26  15  63 NW14G23   29.98F WCI  14
6HR MIN TEMP:  24; 6HR MAX TEMP:  27; 6HR PCP: TRACE;

ROLLA          CLOUDY    23  15  71 NW12      29.92F WCI  12
6HR MIN TEMP:  22; 6HR MAX TEMP:  25; 6HR PCP: TRACE;

SEDALIA        MOCLDY    25  15  66 NW18      30.02F WCI  11
6HR MIN TEMP:  25; 6HR MAX TEMP:  28; 6HR PCP: TRACE;


$$
MOZ051-052-059>065-090700-
...EAST CENTRAL MISSOURI...

CITY           SKY/WX    TMP DP  RH WIND       PRES   REMARKS
ST LOUIS INTL  FLURRIES  23  12  62 W18G25    29.92S WCI   9
6HR MIN TEMP:  23; 6HR MAX TEMP:  25; 6HR PCP: TRACE;


$$
MOZ072>076-082>087-097>100-106>115-090700-
...SOUTH CENTRAL AND SOUTHEAST MISSOURI...

CITY           SKY/WX    TMP DP  RH WIND       PRES   REMARKS
CAPE GIRARDEAU CLOUDY    28  15  58 NW12      29.92F WCI  18
6HR MIN TEMP:  28; 6HR MAX TEMP:  31;

POPLAR BLUFF   CLOUDY    30  15  53 NW20G30   29.94F WCI  17
6HR MIN TEMP:  30; 6HR MAX TEMP:  34; 6HR PCP: TRACE;

WEST PLAINS    CLOUDY    27  15  61 NW14G21   29.94F WCI  16
6HR MIN TEMP:  26; 6HR MAX TEMP:  30; 6HR PCP: TRACE;


$$


USA.gov is the U.S. government's official web portal to all federal, state and local government web resources and services.